TimeCDT,TemperatureF,Dew PointF,Humidity,Sea Level PressureIn,VisibilityMPH,Wind Direction,Wind SpeedMPH,Gust SpeedMPH,PrecipitationIn,Events,Conditions,WindDirDegrees,DateUTC
12:15 AM,69.8,60.8,73,29.92,10.0,SW,10.4,-,N/A,,Overcast,230,2013-07-27 05:15:00
12:35 AM,69.8,60.8,73,29.92,10.0,SW,8.1,-,N/A,,Overcast,230,2013-07-27 05:35:00
12:55 AM,69.8,60.8,73,29.91,10.0,SW,11.5,-,N/A,,Overcast,220,2013-07-27 05:55:00
1:15 AM,69.8,60.8,73,29.91,10.0,SW,11.5,-,N/A,,Mostly Cloudy,220,2013-07-27 06:15:00
1:35 AM,69.8,60.8,73,29.90,10.0,SW,9.2,-,N/A,,Overcast,230,2013-07-27 06:35:00
1:55 AM,69.8,60.8,73,29.90,10.0,SW,10.4,-,N/A,,Overcast,220,2013-07-27 06:55:00
2:15 AM,69.8,62.6,78,29.89,10.0,SW,10.4,-,N/A,,Scattered Clouds,230,2013-07-27 07:15:00
2:35 AM,69.8,62.6,78,29.89,10.0,SW,11.5,-,N/A,,Mostly Cloudy,230,2013-07-27 07:35:00
2:55 AM,69.8,62.6,78,29.89,10.0,SW,9.2,-,N/A,,Overcast,220,2013-07-27 07:55:00
3:15 AM,69.8,62.6,78,29.88,10.0,SW,8.1,-,N/A,,Overcast,230,2013-07-27 08:15:00
3:35 AM,69.8,62.6,78,29.88,10.0,SW,6.9,-,N/A,,Overcast,230,2013-07-27 08:35:00
3:55 AM,69.8,62.6,78,29.88,10.0,SW,10.4,-,N/A,,Overcast,220,2013-07-27 08:55:00
4:15 AM,69.8,62.6,78,29.87,10.0,SW,10.4,-,N/A,,Overcast,230,2013-07-27 09:15:00
4:35 AM,68.0,62.6,83,29.87,10.0,WSW,10.4,-,N/A,,Overcast,240,2013-07-27 09:35:00
4:55 AM,68.0,62.6,83,29.87,10.0,WSW,10.4,-,N/A,,Overcast,240,2013-07-27 09:55:00
5:15 AM,68.0,62.6,83,29.87,10.0,WSW,9.2,-,N/A,,Overcast,240,2013-07-27 10:15:00
5:35 AM,68.0,62.6,83,29.87,10.0,SW,9.2,-,N/A,,Overcast,230,2013-07-27 10:35:00
5:55 AM,68.0,62.6,83,29.87,10.0,SW,10.4,-,N/A,,Overcast,220,2013-07-27 10:55:00
6:15 AM,68.0,62.6,83,29.87,9.0,SW,10.4,-,N/A,,Overcast,230,2013-07-27 11:15:00
6:35 AM,68.0,62.6,83,29.87,10.0,WSW,9.2,-,N/A,,Overcast,240,2013-07-27 11:35:00
6:55 AM,68.0,62.6,83,29.87,9.0,WSW,11.5,-,N/A,,Overcast,240,2013-07-27 11:55:00
7:15 AM,68.0,64.4,88,29.87,7.0,West,9.2,-,N/A,,Overcast,270,2013-07-27 12:15:00
7:35 AM,68.0,64.4,88,29.87,7.0,West,11.5,-,N/A,,Overcast,270,2013-07-27 12:35:00
7:55 AM,68.0,62.6,83,29.87,9.0,West,12.7,-,N/A,,Mostly Cloudy,280,2013-07-27 12:55:00
8:15 AM,68.0,62.6,83,29.88,10.0,West,12.7,-,N/A,,Mostly Cloudy,270,2013-07-27 13:15:00
8:35 AM,69.8,62.6,78,29.87,10.0,West,9.2,-,N/A,,Overcast,270,2013-07-27 13:35:00
8:55 AM,69.8,60.8,73,29.87,10.0,West,10.4,-,N/A,,Scattered Clouds,270,2013-07-27 13:55:00
9:15 AM,69.8,60.8,73,29.87,10.0,West,12.7,-,N/A,,Partly Cloudy,260,2013-07-27 14:15:00
9:35 AM,71.6,60.8,69,29.87,10.0,West,12.7,-,N/A,,Clear,270,2013-07-27 14:35:00
9:55 AM,71.6,60.8,69,29.87,10.0,West,11.5,-,N/A,,Clear,270,2013-07-27 14:55:00
10:15 AM,71.6,59.0,64,29.87,10.0,West,13.8,-,N/A,,Mostly Cloudy,280,2013-07-27 15:15:00
10:35 AM,73.4,59.0,61,29.87,10.0,West,12.7,19.6,N/A,,Mostly Cloudy,270,2013-07-27 15:35:00
10:55 AM,73.4,59.0,61,29.87,10.0,WNW,12.7,18.4,N/A,,Scattered Clouds,290,2013-07-27 15:55:00
11:15 AM,73.4,57.2,57,29.87,10.0,West,12.7,17.3,N/A,,Scattered Clouds,280,2013-07-27 16:15:00
11:35 AM,73.4,57.2,57,29.87,10.0,WNW,16.1,19.6,N/A,,Partly Cloudy,290,2013-07-27 16:35:00
11:55 AM,73.4,57.2,57,29.86,10.0,West,13.8,19.6,N/A,,Scattered Clouds,260,2013-07-27 16:55:00
12:15 PM,75.2,55.4,50,29.86,10.0,West,12.7,19.6,N/A,,Mostly Cloudy,270,2013-07-27 17:15:00
12:35 PM,75.2,57.2,53,29.85,10.0,West,11.5,20.7,N/A,,Mostly Cloudy,270,2013-07-27 17:35:00
12:55 PM,77.0,55.4,47,29.86,10.0,West,13.8,21.9,N/A,,Mostly Cloudy,280,2013-07-27 17:55:00
1:15 PM,77.0,55.4,47,29.85,10.0,West,13.8,-,N/A,,Scattered Clouds,270,2013-07-27 18:15:00
1:35 PM,75.2,53.6,47,29.85,10.0,West,20.7,24.2,N/A,,Mostly Cloudy,280,2013-07-27 18:35:00
1:55 PM,77.0,55.4,47,29.85,10.0,West,17.3,25.3,N/A,,Mostly Cloudy,260,2013-07-27 18:55:00
2:15 PM,77.0,55.4,47,29.84,10.0,West,21.9,25.3,N/A,,Scattered Clouds,280,2013-07-27 19:15:00
2:35 PM,78.8,55.4,44,29.84,10.0,West,21.9,25.3,N/A,,Partly Cloudy,280,2013-07-27 19:35:00
2:55 PM,75.2,53.6,47,29.84,10.0,West,18.4,26.5,N/A,,Scattered Clouds,270,2013-07-27 19:55:00
3:15 PM,75.2,55.4,50,29.84,10.0,West,18.4,25.3,N/A,,Mostly Cloudy,280,2013-07-27 20:15:00
3:35 PM,75.2,53.6,47,29.85,10.0,WNW,21.9,-,N/A,,Scattered Clouds,290,2013-07-27 20:35:00
3:55 PM,73.4,55.4,53,29.85,10.0,WNW,21.9,28.8,N/A,,Mostly Cloudy,290,2013-07-27 20:55:00
4:15 PM,73.4,53.6,50,29.85,10.0,WNW,20.7,26.5,N/A,,Scattered Clouds,300,2013-07-27 21:15:00
4:35 PM,73.4,51.8,47,29.85,10.0,WNW,21.9,-,N/A,,Partly Cloudy,290,2013-07-27 21:35:00
4:55 PM,71.6,51.8,50,29.86,10.0,WNW,19.6,25.3,N/A,,Mostly Cloudy,290,2013-07-27 21:55:00
5:15 PM,73.4,51.8,47,29.86,10.0,NW,18.4,25.3,N/A,,Mostly Cloudy,310,2013-07-27 22:15:00
5:35 PM,73.4,51.8,47,29.86,10.0,WNW,19.6,25.3,N/A,,Scattered Clouds,290,2013-07-27 22:35:00
5:55 PM,71.6,51.8,50,29.86,10.0,NW,18.4,23.0,N/A,,Clear,310,2013-07-27 22:55:00
6:15 PM,71.6,48.2,43,29.87,10.0,NW,16.1,23.0,N/A,,Clear,310,2013-07-27 23:15:00
6:35 PM,69.8,48.2,46,29.87,10.0,WNW,13.8,-,N/A,,Mostly Cloudy,300,2013-07-27 23:35:00
6:55 PM,69.8,48.2,46,29.88,10.0,WNW,11.5,-,N/A,,Mostly Cloudy,300,2013-07-27 23:55:00
7:15 PM,69.8,48.2,46,29.89,10.0,WNW,13.8,-,N/A,,Mostly Cloudy,290,2013-07-28 00:15:00
7:35 PM,66.2,48.2,52,29.89,10.0,NW,10.4,-,N/A,,Partly Cloudy,310,2013-07-28 00:35:00
7:55 PM,64.4,48.2,56,29.89,10.0,NW,9.2,-,N/A,,Clear,310,2013-07-28 00:55:00
8:15 PM,64.4,48.2,56,29.90,10.0,NW,10.4,-,N/A,,Scattered Clouds,310,2013-07-28 01:15:00
8:35 PM,62.6,48.2,59,29.91,10.0,WNW,9.2,-,N/A,,Scattered Clouds,300,2013-07-28 01:35:00
8:55 PM,62.6,48.2,59,29.92,10.0,NW,8.1,-,N/A,,Mostly Cloudy,320,2013-07-28 01:55:00
9:15 PM,62.6,48.2,59,29.92,10.0,NW,10.4,-,N/A,,Mostly Cloudy,310,2013-07-28 02:15:00
9:35 PM,62.6,48.2,59,29.92,10.0,WNW,10.4,-,N/A,,Overcast,300,2013-07-28 02:35:00
9:55 PM,62.6,48.2,59,29.93,10.0,WNW,9.2,-,N/A,,Overcast,300,2013-07-28 02:55:00
10:15 PM,60.8,48.2,63,29.93,10.0,NNW,5.8,-,N/A,,Mostly Cloudy,330,2013-07-28 03:15:00
10:35 PM,59.0,48.2,67,29.93,10.0,NW,5.8,-,N/A,,Mostly Cloudy,320,2013-07-28 03:35:00
10:55 PM,59.0,48.2,67,29.93,10.0,Calm,Calm,-,N/A,,Overcast,0,2013-07-28 03:55:00
11:15 PM,59.0,48.2,67,29.93,10.0,West,3.5,-,N/A,,Scattered Clouds,280,2013-07-28 04:15:00
11:35 PM,57.2,48.2,72,29.93,10.0,WSW,3.5,-,N/A,,Clear,250,2013-07-28 04:35:00
11:55 PM,57.2,48.2,72,29.93,10.0,WSW,4.6,-,N/A,,Partly Cloudy,250,2013-07-28 04:55:00